Location: Alulod
(14.2076°N, 120.8898°E)
Time: 13:23:21
(UTC+00:00)

USA 238 DEB - Pass Details

Date: 23 March 2026
Orbit: 883 x 1328 km, 63.4° (Epoch: 10 January)

Event Time Altitude Azimuth Distance (km) Brightness Sun altitude
Exits shadow 21:17:31 10° 287° (WNW) 3,328 5.7 -10.7°
Reaches altitude 10° 21:17:31 10° 287° (WNW) 3,328 5.7 -10.7°
Maximum altitude 21:22:16 17° 251° (WSW) 2,860 5.3 -9.5°
Drops below altitude 10° 21:27:04 10° 215° (SW) 3,347 5.9 -8.4°
Sets 21:31:12 0° 195° (SSW) 4,291 6.7 -7.4°
